Location: Avon Lake
(41.5219°N, 93.5010°W)
Time: 07:06:14
(UTC+00:00)

BlueWalker 3 - Pass Details

Date: 07 December 2022
Orbit: 499 x 517 km, 53.2° (Epoch: 07 February)

Event Time Altitude Azimuth Distance (km) Brightness Sun altitude
Rises 00:19:59 0° 312° (NW) 2,628 6.1 -17.4°
Reaches altitude 10° 00:22:28 10° 325° (NW) 1,735 4.9 -17.8°
Enters shadow 00:25:29 25° 15° (NNE) 1,049 3.3 -18.4°
